CGR802 SCIE-SCEL

Flight info

Callsign CGR802
Flight time N/A
Altitude 30000
Route LODOS4N LODOS UQ808 EROLO EROLO4B
Aircraft B739/M-SDE2E3FGHIRWXY/LB1

Departure

Time N/A
Airport Carriel Sur International Airport (SCIE)

Arrival

Time 2026-05-06 21:02
Airport Comodoro Arturo Merino Benítez International Airport (SCEL)
Time Latitude Longitude Altitude Speed Heading
2026-05-06 20:32 -34.94472 -71.56923 34126 ft 465 kts 15°
2026-05-06 20:33 -34.91528 -71.55300 34128 ft 463 kts 15°
2026-05-06 20:33 -34.85664 -71.52075 34127 ft 461 kts 15°
2026-05-06 20:34 -34.79831 -71.48873 34132 ft 460 kts 15°
2026-05-06 20:34 -34.73960 -71.45658 34154 ft 466 kts 14°
2026-05-06 20:35 -34.68016 -71.42400 34144 ft 468 kts 14°
2026-05-06 20:35 -34.62068 -71.39207 34136 ft 466 kts 13°
2026-05-06 20:36 -34.56075 -71.36273 34131 ft 463 kts 12°
2026-05-06 20:36 -34.50096 -71.33387 34126 ft 462 kts 12°
2026-05-06 20:37 -34.44173 -71.30498 34133 ft 461 kts 12°
2026-05-06 20:37 -34.38225 -71.27579 34113 ft 460 kts 12°
2026-05-06 20:38 -34.32321 -71.24683 34135 ft 458 kts 11°
2026-05-06 20:38 -34.26405 -71.21789 34122 ft 459 kts 11°
2026-05-06 20:39 -34.20482 -71.18896 34124 ft 458 kts 11°
2026-05-06 20:39 -34.14614 -71.16032 34134 ft 456 kts 11°
2026-05-06 20:39 -34.11649 -71.14591 33569 ft 465 kts 11°
2026-05-06 20:40 -34.08629 -71.13124 32909 ft 465 kts 11°
2026-05-06 20:40 -34.05658 -71.11670 32373 ft 459 kts 11°
2026-05-06 20:40 -34.02708 -71.10230 31810 ft 455 kts 11°
2026-05-06 20:40 -33.99789 -71.08811 31266 ft 451 kts 11°
2026-05-06 20:41 -33.96870 -71.07595 30691 ft 432 kts 359°
2026-05-06 20:41 -33.93974 -71.07355 30072 ft 409 kts 347°
2026-05-06 20:41 -33.91139 -71.07441 29429 ft 405 kts 347°
2026-05-06 20:41 -33.88339 -71.07542 28884 ft 399 kts 347°
2026-05-06 20:42 -33.85577 -71.07638 28333 ft 395 kts 347°
2026-05-06 20:42 -33.82841 -71.07723 27832 ft 390 kts 348°
2026-05-06 20:42 -33.80141 -71.07797 27288 ft 387 kts 348°
2026-05-06 20:42 -33.77451 -71.07866 26771 ft 384 kts 348°
2026-05-06 20:43 -33.74794 -71.07930 26260 ft 381 kts 348°
2026-05-06 20:43 -33.72188 -71.07990 25767 ft 378 kts 348°
2026-05-06 20:43 -33.69540 -71.08050 25262 ft 375 kts 349°
2026-05-06 20:43 -33.66970 -71.08110 24791 ft 373 kts 349°
2026-05-06 20:44 -33.64410 -71.08169 24298 ft 372 kts 349°
2026-05-06 20:44 -33.61812 -71.08229 23776 ft 372 kts 349°
2026-05-06 20:44 -33.59230 -71.08288 23191 ft 371 kts 349°
2026-05-06 20:44 -33.56657 -71.08345 22688 ft 368 kts 350°
2026-05-06 20:45 -33.54107 -71.08401 22184 ft 366 kts 350°
2026-05-06 20:45 -33.51564 -71.08457 21696 ft 364 kts 350°
2026-05-06 20:45 -33.49030 -71.08514 21204 ft 363 kts 350°
2026-05-06 20:45 -33.46514 -71.08570 20733 ft 361 kts 351°
2026-05-06 20:46 -33.44004 -71.08626 20234 ft 359 kts 351°
2026-05-06 20:46 -33.41517 -71.08682 19773 ft 356 kts 351°
2026-05-06 20:46 -33.39071 -71.08736 19333 ft 354 kts 352°
2026-05-06 20:46 -33.36611 -71.08791 18863 ft 353 kts 352°
2026-05-06 20:47 -33.34158 -71.08847 18381 ft 352 kts 352°
2026-05-06 20:47 -33.31715 -71.08901 17873 ft 351 kts 353°
2026-05-06 20:47 -33.29276 -71.08955 17368 ft 349 kts 353°
2026-05-06 20:47 -33.26850 -71.09009 16900 ft 348 kts 353°
2026-05-06 20:48 -33.24438 -71.09063 16443 ft 348 kts 353°
2026-05-06 20:48 -33.22013 -71.09117 15959 ft 347 kts 353°
2026-05-06 20:48 -33.19600 -71.09099 15527 ft 347 kts 360°
2026-05-06 20:48 -33.17225 -71.08709 15258 ft 343 kts
2026-05-06 20:49 -33.14887 -71.08168 14853 ft 342 kts
2026-05-06 20:49 -33.12558 -71.07601 14431 ft 341 kts
2026-05-06 20:49 -33.10244 -71.07052 13998 ft 338 kts
2026-05-06 20:49 -33.07959 -71.06526 13364 ft 341 kts
2026-05-06 20:50 -33.05601 -71.06002 12870 ft 339 kts
2026-05-06 20:50 -33.03309 -71.05501 12395 ft 338 kts
2026-05-06 20:50 -33.01001 -71.05001 11950 ft 336 kts
2026-05-06 20:50 -32.98713 -71.04508 11684 ft 329 kts
2026-05-06 20:51 -32.96502 -71.04031 11551 ft 318 kts
2026-05-06 20:51 -32.94351 -71.03569 11374 ft 310 kts
2026-05-06 20:51 -32.92267 -71.03118 11220 ft 297 kts
2026-05-06 20:51 -32.90395 -71.02212 11044 ft 288 kts 33°
2026-05-06 20:52 -32.89088 -71.00515 10976 ft 272 kts 58°
2026-05-06 20:52 -32.88480 -70.98459 10847 ft 257 kts 79°
2026-05-06 20:52 -32.88446 -70.96421 10652 ft 245 kts 99°
2026-05-06 20:52 -32.88874 -70.94453 10283 ft 245 kts 108°
2026-05-06 20:53 -32.89410 -70.92532 9961 ft 244 kts 109°
2026-05-06 20:53 -32.89950 -70.90610 9670 ft 248 kts 108°
2026-05-06 20:53 -32.90510 -70.88583 9367 ft 271 kts 108°
2026-05-06 20:53 -32.91125 -70.86382 8857 ft 286 kts 112°
2026-05-06 20:54 -32.92249 -70.84442 8179 ft 288 kts 143°
2026-05-06 20:54 -32.93997 -70.83371 7563 ft 283 kts 168°
2026-05-06 20:54 -32.95916 -70.83015 7186 ft 273 kts 175°
2026-05-06 20:54 -32.97775 -70.82756 7084 ft 265 kts 176°
2026-05-06 20:55 -32.99563 -70.82499 7050 ft 257 kts 176°
2026-05-06 20:55 -33.01306 -70.82295 6977 ft 242 kts 179°
2026-05-06 20:55 -33.02916 -70.82169 6947 ft 223 kts 181°
2026-05-06 20:55 -33.04429 -70.82086 6927 ft 215 kts 182°
2026-05-06 20:56 -33.05924 -70.82012 6716 ft 220 kts 182°
2026-05-06 20:56 -33.07476 -70.81933 6476 ft 220 kts 181°
2026-05-06 20:56 -33.08976 -70.81854 6222 ft 217 kts 181°
2026-05-06 20:56 -33.10476 -70.81775 5969 ft 214 kts 181°
2026-05-06 20:57 -33.11958 -70.81696 5762 ft 213 kts 181°
2026-05-06 20:57 -33.13441 -70.81619 5554 ft 214 kts 181°
2026-05-06 20:57 -33.14936 -70.81542 5340 ft 214 kts 180°
2026-05-06 20:57 -33.16429 -70.81462 5215 ft 216 kts 181°
2026-05-06 20:58 -33.17924 -70.81387 5103 ft 213 kts 180°
2026-05-06 20:58 -33.19404 -70.81309 4934 ft 215 kts 179°
2026-05-06 20:58 -33.20894 -70.81228 4671 ft 212 kts 179°
2026-05-06 20:58 -33.22320 -70.81151 4456 ft 204 kts 180°
2026-05-06 20:59 -33.23705 -70.81080 4245 ft 195 kts 179°
2026-05-06 20:59 -33.25068 -70.81010 3995 ft 195 kts 179°
2026-05-06 20:59 -33.26414 -70.80940 3728 ft 192 kts 179°
2026-05-06 20:59 -33.27738 -70.80869 3471 ft 187 kts 178°
2026-05-06 21:00 -33.29017 -70.80802 3240 ft 182 kts 178°
2026-05-06 21:00 -33.30272 -70.80737 3014 ft 182 kts 178°
2026-05-06 21:00 -33.31534 -70.80670 2757 ft 179 kts 178°
2026-05-06 21:00 -33.32726 -70.80607 2503 ft 163 kts 178°
2026-05-06 21:01 -33.33801 -70.80551 2310 ft 151 kts 179°
2026-05-06 21:01 -33.34839 -70.80495 2092 ft 150 kts 178°
2026-05-06 21:01 -33.35895 -70.80416 1858 ft 152 kts 179°
2026-05-06 21:01 -33.36951 -70.80388 1673 ft 152 kts 178°
2026-05-06 21:02 -33.37968 -70.80331 1586 ft 133 kts 178°
2026-05-06 21:02 -33.38742 -70.80291 1574 ft 89 kts 177°
2026-05-06 21:02 -33.39072 -70.80274 1573 ft 27 kts 178°
2026-05-06 21:02 -33.39233 -70.80260 1571 ft 20 kts 163°
2026-05-06 21:03 -33.39332 -70.80197 1570 ft 11 kts 148°
2026-05-06 21:03 -33.39393 -70.80152 1568 ft 10 kts 148°
2026-05-06 21:03 -33.39454 -70.80108 1566 ft 10 kts 148°
2026-05-06 21:03 -33.39502 -70.80059 1565 ft 9 kts 130°
2026-05-06 21:04 -33.39526 -70.79993 1564 ft 9 kts 101°
2026-05-06 21:04 -33.39530 -70.79923 1564 ft 8 kts 88°
2026-05-06 21:04 -33.39528 -70.79854 1564 ft 8 kts 88°
2026-05-06 21:04 -33.39526 -70.79788 1564 ft 8 kts 87°
2026-05-06 21:05 -33.39523 -70.79724 1564 ft 8 kts 87°
2026-05-06 21:05 -33.39521 -70.79661 1564 ft 7 kts 87°
2026-05-06 21:05 -33.39518 -70.79601 1564 ft 8 kts 86°
2026-05-06 21:05 -33.39513 -70.79515 1563 ft 14 kts 86°
2026-05-06 21:06 -33.39508 -70.79388 1563 ft 16 kts 88°
2026-05-06 21:06 -33.39504 -70.79260 1563 ft 15 kts 88°
2026-05-06 21:06 -33.39499 -70.79137 1563 ft 14 kts 85°
2026-05-06 21:06 -33.39493 -70.79019 1563 ft 14 kts 87°
2026-05-06 21:07 -33.39491 -70.78931 1563 ft 9 kts 100°
2026-05-06 21:07 -33.39535 -70.78892 1564 ft 8 kts 169°
2026-05-06 21:07 -33.39592 -70.78886 1564 ft 8 kts 177°
2026-05-06 21:07 -33.39647 -70.78884 1563 ft 8 kts 179°
2026-05-06 21:08 -33.39700 -70.78882 1563 ft 8 kts 177°
2026-05-06 21:08 -33.39749 -70.78879 1563 ft 6 kts 177°
2026-05-06 21:08 -33.39782 -70.78898 1563 ft 6 kts 234°
2026-05-06 21:08 -33.39792 -70.78937 1563 ft 4 kts 279°
2026-05-06 21:09 -33.39766 -70.78951 1563 ft 4 kts
2026-05-06 21:09 -33.39737 -70.78951 1563 ft 4 kts 358°
2026-05-06 21:09 -33.39712 -70.78953 1563 ft 2 kts 358°
2026-05-06 21:09 -33.39710 -70.78953 1563 ft 0 kts 358°